SCP
1 1 1 0 0 0 0 0 0 0 0 0 0 0 0 0 0 1 1 1 1 0 0 0 0 0 0 0 0 0 0 0 0 0 0 0 0 0 0 0 0 0 0
1 1 1 0 0 0 0 0 0 0 0 0 0 0 0 0 0 0 1 1 0 0 0 0 0 0 0 0 0 0 0 0 0 0 0 0 0 0 0 0 0 0 0
1 1 0 0 0 0 0 0 0 0 0 0 0 0 0 0 0 0 0 0 0 0 0 0 0 0 0 0 0 0 0 0 0 -0 -0 0 0 0 0 0 0 0 0
1 0 0 0 0 0 0 0 0 0 0 0 0 0 0 0 0 0 0 0 0 0 0 0 0 0 0 0 0 0 0 -0 -0 -0 -0 0 0 0 0 0 0 0 0
0 0 0 0 0 0 0 0 0 0 0 0 0 0 0 0 0 0 0 0 0 0 0 0 0 0 0 0 0 0 -0 -0 -0 -0 0 0 0 0 0 0 0 0 0
0 0 0 0 0 0 0 0 0 0 0 0 0 0 0 0 0 0 0 0 0 0 0 0 0 0 0 0 0 0 -0 -0 0 0 0 0 0 0 0 0 0 0 0
0 0 0 0 0 0 0 0 0 0 0 0 0 0 0 0 0 0 0 0 0 0 0 0 0 0 0 0 0 0 -0 0 0 0 0 0 0 0 0 0 0 0 0
1 0 0 0 0 0 0 0 0 0 0 0 0 0 0 0 0 0 0 0 0 0 0 0 0 0 0 0 0 0 0 0 0 0 0 0 0 1 0 0 0 0 0
1 0 0 0 0 0 0 0 0 0 0 0 0 0 0 0 0 0 0 0 0 0 0 0 0 0 0 0 0 0 -0 -0 0 0 0 0 1 1 1 0 0 0 0
1 0 0 0 0 0 0 0 0 0 0 0 0 0 0 0 0 0 0 0 0 0 0 0 0 0 0 0 0 0 -0 -0 0 0 0 1 1 1 1 0 0 0 0
0 0 0 0 0 0 0 0 0 0 0 0 0 0 0 0 0 0 0 0 0 0 0 0 0 0 0 0 0 0 0 0 0 0 1 1 1 1 1 1 0 0 0
0 0 0 0 0 0 0 0 0 0 0 0 0 0 0 0 0 0 0 1 0 0 0 0 0 0 0 0 0 0 0 0 0 0 1 1 1 1 1 1 1 0 0
0 0 0 0 0 0 0 0 0 0 0 0 0 0 0 0 0 0 1 1 1 0 0 0 0 0 0 0 0 0 0 0 0 0 1 1 1 1 1 1 1 0 0
0 0 1 1 1 1 1 0 0 0 0 0 0 0 0 0 0 1 1 1 1 0 0 0 0 0 0 0 0 0 0 0 0 0 1 1 1 1 1 1 1 0 0
1 1 1 1 1 1 1 1 1 1 1 1 1 1 1 1 1 1 1 1 1 1 1 0 0 0 0 0 0 0 0 0 0 0 0 1 1 1 1 1 1 1 0
1 1 1 2 2 2 2 1 1 1 1 1 1 1 1 1 1 1 2 2 1 1 1 1 1 1 1 0 0 0 0 0 0 0 0 0 1 1 1 1 1 1 1
2 2 2 2 3 3 2 2 2 1 1 2 2 2 2 2 2 2 2 2 2 2 1 1 1 1 1 1 1 0 0 0 0 0 0 0 0 0 0 0 0 0 0
3 3 3 3 3 3 3 3 2 2 2 2 2 2 2 2 2 2 2 2 2 2 2 1 1 1 1 1 1 0 0 0 0 0 0 0 0 0 0 0 0 0 0
4 4 4 4 4 4 4 4 3 3 3 3 3 3 2 2 2 3 2 2 2 2 2 1 1 1 1 1 0 0 0 0 0 0 0 0 0 0 0 0 0 0 0
5 5 5 6 6 5 5 4 4 4 4 3 3 3 3 2 2 2 2 2 2 1 1 1 1 1 0 0 0 0 0 0 0 0 0 0 0 0 0 0 0 0 0
6 6 7 7 7 7 6 5 5 4 4 4 3 3 2 2 2 2 2 2 1 1 1 1 0 0 0 0 0 0 0 0 0 0 0 0 0 0 0 0 0 0 0
7 7 7 8 8 7 6 5 5 4 4 3 3 2 2 2 1 1 1 1 1 1 0 0 0 0 0 0 0 0 0 0 0 0 0 0 0 0 0 0 0 0 0
7 7 7 8 8 7 6 5 5 4 3 3 2 1 1 1 1 1 1 0 0 0 0 0 0 0 0 0 0 0 0 0 0 0 0 0 0 0 0 0 0 0 0
8 8 8 8 7 6 6 5 4 3 3 2 1 1 1 0 0 0 0 0 0 0 0 0 0 0 0 0 0 0 0 0 0 0 0 0 0 0 0 0 0 0 0
8 8 8 7 6 5 5 4 3 3 2 1 1 1 0 0 0 0 0 0 0 0 0 0 0 0 0 0 0 0 0 0 0 0 0 0 0 0 0 0 0 0 0
7 7 7 6 5 4 4 3 3 2 1 1 0 0 0 0 0 0 0 0 0 0 0 0 0 0 0 0 0 0 0 0 0 0 0 0 0 0 0 0 0 0 0
Wind_Speed
19 18 19 16 13 12 12 12 12 12 12 11 10 10 10 11 11 12 12 12 12 11 11 10 10 9 9 10 10 11 11 11 11 12 13 13 12 11 9 8 5 11 12
22 19 19 16 14 12 12 12 13 13 12 12 11 10 10 10 10 11 11 11 11 11 11 10 9 9 8 8 8 8 8 7 7 8 10 11 11 10 10 11 11 10 11
21 18 17 16 14 12 12 12 13 13 13 12 11 11 10 10 10 10 11 10 10 10 10 10 9 8 8 7 7 6 5 4 3 3 4 6 9 9 10 11 13 12 10
19 16 16 17 14 13 12 12 12 13 13 13 12 12 11 10 10 10 10 10 10 9 9 9 8 7 7 6 5 4 2 1 2 3 4 2 7 10 9 9 9 9 9
17 15 17 17 15 14 13 12 12 13 13 13 12 12 11 11 10 10 10 10 9 9 8 8 7 6 5 4 3 2 2 4 6 7 4 3 7 10 9 8 8 8 7
18 17 17 17 16 14 14 13 13 13 13 12 12 11 11 10 10 10 9 9 9 8 8 7 6 5 4 3 1 1 4 6 8 6 2 6 8 10 10 7 7 6 5
18 18 17 16 16 15 14 13 12 12 12 12 11 11 10 10 9 9 9 8 8 7 7 6 5 4 3 1 0 3 5 8 8 6 2 5 10 12 10 8 6 5 4
18 18 16 17 16 15 14 12 12 11 11 11 11 10 10 9 9 9 8 8 7 7 6 5 4 3 2 1 2 4 7 10 8 5 1 7 12 12 10 8 6 4 3
19 19 15 15 14 14 13 12 11 11 11 11 10 10 10 9 9 9 8 8 7 6 6 5 4 3 3 3 4 6 8 9 8 5 2 7 11 12 10 7 5 4 3
18 18 16 15 14 13 12 13 12 12 11 11 11 11 10 10 9 9 9 8 8 7 6 5 5 4 5 6 7 8 9 9 7 4 3 7 11 11 9 7 5 4 4
16 17 16 16 14 13 13 13 12 12 11 11 10 10 9 8 8 8 9 11 9 7 7 6 6 7 7 8 10 10 8 5 6 2 5 11 11 10 9 7 5 5 4
16 17 16 17 15 14 12 11 9 9 9 8 8 9 7 6 6 8 11 12 11 9 8 9 9 9 8 6 9 10 5 7 4 4 6 12 11 10 8 6 5 5 4
15 14 17 17 13 13 10 10 7 6 8 8 9 9 6 5 4 6 6 7 7 8 7 7 8 6 7 5 4 5 5 3 2 5 7 11 10 9 7 6 5 4 4
16 15 16 17 13 11 11 9 7 7 7 7 7 9 6 3 3 5 4 6 5 4 5 4 4 6 4 2 2 2 2 0 3 5 6 10 9 8 7 5 4 4 5
16 14 14 16 12 7 7 7 7 6 8 7 7 7 6 4 2 2 2 3 3 3 4 3 3 1 0 1 2 2 4 3 4 5 5 9 9 7 6 4 3 3 4
16 14 12 15 13 8 6 5 5 6 5 6 6 7 6 4 3 2 2 1 0 0 1 1 0 1 1 1 2 4 5 5 4 4 4 5 7 6 5 4 2 1 2
15 13 11 13 13 10 10 7 6 6 6 5 5 6 6 4 4 4 2 2 1 1 2 2 2 2 1 1 2 3 3 3 4 4 3 2 4 5 4 3 2 0 2
16 14 13 14 15 11 8 7 5 6 7 5 5 5 6 5 5 4 3 2 2 1 2 1 1 1 1 1 2 2 1 2 2 2 2 1 1 3 4 4 3 1 1
14 14 13 12 15 13 10 7 6 5 5 5 5 5 6 6 5 4 3 2 2 2 1 1 1 0 1 1 1 1 1 1 1 2 1 2 1 1 3 5 5 3 1
11 13 12 11 13 12 9 7 5 5 5 4 4 5 6 5 5 3 2 3 2 2 1 1 2 1 1 1 2 2 1 1 1 1 1 2 1 1 0 3 3 4 5
11 12 12 11 12 10 8 8 7 6 5 4 4 4 4 5 4 3 3 3 2 1 2 2 1 1 1 2 1 2 2 3 2 1 0 2 2 1 1 1 2 1 3
11 11 11 11 12 10 7 6 5 6 5 5 5 6 6 6 5 4 4 3 2 2 3 2 1 1 2 1 0 1 2 2 1 2 2 2 2 1 2 4 2 2 2
8 9 11 11 11 9 9 7 6 5 5 4 5 5 6 6 6 5 5 4 4 3 3 3 2 2 1 1 2 1 1 2 3 1 2 2 2 1 2 3 4 3 4
6 6 7 9 9 8 9 9 10 7 6 5 6 6 7 7 7 7 7 7 6 5 5 4 4 3 2 1 1 2 1 2 1 3 3 3 3 3 4 5 4 3 3
9 8 8 9 8 8 7 8 8 7 7 7 8 9 8 8 8 8 7 7 7 6 6 6 5 5 3 3 2 1 1 1 1 2 4 4 3 3 3 4 3 3 3
13 12 12 12 11 9 9 8 8 10 10 10 9 9 7 6 7 8 9 8 7 6 6 5 5 6 4 4 2 2 1 1 1 2 3 4 4 4 4 3 3 4 4
Wind_Direction
120 128 126 122 120 122 130 139 139 136 131 126 120 113 105 99 95 94 94 96 99 100 100 97 92 84 77 71 67 67 68 70 74 78 81 80 77 73 67 62 88 93 92
122 127 126 124 123 125 131 139 142 139 137 134 130 123 117 111 105 102 101 102 103 104 103 99 95 90 84 79 75 73 72 74 82 93 102 97 87 75 63 51 64 96 94
120 127 127 125 125 126 130 136 141 141 141 141 138 133 127 119 113 109 107 105 106 106 105 102 99 93 89 84 81 77 75 76 90 123 157 122 105 87 74 72 79 90 91
123 133 130 128 127 127 129 133 140 143 144 145 143 140 134 127 121 117 113 111 109 108 107 104 100 96 92 88 83 75 55 350 303 265 233 155 119 103 89 83 86 89 92
126 129 128 133 130 130 131 134 140 143 145 147 146 144 139 132 126 122 118 115 111 109 108 106 102 100 97 90 81 53 327 302 294 275 259 121 107 116 105 96 92 90 88
132 130 135 135 133 133 134 136 141 144 145 146 146 143 139 133 128 125 122 119 116 114 112 109 108 107 105 100 80 329 303 300 300 278 238 130 119 124 118 112 104 98 91
137 132 139 137 135 136 137 139 141 142 143 144 144 141 136 133 130 128 126 124 121 119 117 117 118 119 121 125 264 290 291 294 283 291 335 122 126 132 128 124 117 110 104
135 132 138 140 140 140 141 141 138 137 139 140 139 137 134 132 132 130 129 127 125 125 125 128 132 137 151 208 264 279 286 291 288 294 137 118 133 135 134 134 131 129 128
136 134 145 147 145 144 143 141 137 135 135 135 135 135 136 137 138 138 136 133 132 135 140 146 155 167 194 231 256 270 278 285 290 283 159 118 131 132 136 142 146 149 151
139 141 152 153 153 154 151 148 143 139 138 138 140 143 144 146 152 154 153 148 149 154 160 167 181 196 214 231 243 253 266 281 267 272 102 120 130 130 136 146 156 164 170
145 146 154 154 159 163 161 154 151 149 147 148 152 156 161 176 175 175 173 156 163 169 176 188 202 214 222 230 238 244 255 254 247 123 108 130 134 133 139 147 158 168 179
153 155 156 155 162 169 163 151 165 169 163 179 171 170 192 204 189 175 157 164 172 180 192 206 216 223 229 229 229 235 246 244 248 118 121 131 130 132 137 145 161 177 189
161 164 157 157 165 167 154 158 172 175 163 193 178 175 197 204 175 151 157 164 179 190 203 208 219 231 227 226 214 204 225 252 116 105 122 125 125 130 136 149 169 189 201
165 171 161 155 165 167 159 162 168 169 164 181 170 177 186 196 187 164 170 171 183 198 203 196 217 221 237 261 267 265 250 207 97 107 123 125 124 129 138 154 179 199 212
167 173 166 156 157 156 145 158 167 164 165 168 162 178 171 176 185 164 159 157 186 181 177 204 235 203 81 316 297 314 350 18 59 93 121 124 123 126 136 152 179 213 228
167 171 164 155 151 150 146 156 150 155 148 157 158 166 168 165 156 142 136 125 91 73 91 145 300 60 42 323 346 17 13 3 39 69 107 125 124 125 127 132 146 215 254
163 164 158 156 154 159 161 171 161 161 153 155 148 151 156 160 146 144 140 139 156 92 73 54 15 33 7 334 18 25 20 4 16 43 62 119 137 132 132 129 128 165 281
164 161 162 167 159 163 164 173 162 162 149 142 138 146 151 152 150 144 146 146 135 116 85 88 31 359 347 357 18 27 29 23 9 21 25 14 116 133 140 143 133 123 293
158 157 163 164 159 165 164 159 158 149 141 139 141 138 147 154 154 150 149 137 134 124 123 170 113 11 10 11 349 5 13 6 355 332 356 323 317 128 142 153 158 160 181
151 154 161 158 154 158 160 156 162 150 139 136 133 142 147 142 141 141 133 118 123 126 132 113 102 76 44 12 321 322 312 299 290 325 314 290 319 296 198 154 171 193 206
155 158 161 163 155 156 162 167 169 160 144 129 114 109 103 107 111 107 107 109 117 128 118 114 120 119 79 43 348 300 263 229 237 199 281 311 301 283 306 276 242 212 190
157 158 157 162 159 163 161 157 151 138 126 109 90 80 80 85 86 100 99 105 98 95 91 79 58 78 66 62 37 318 308 278 245 230 201 224 252 264 281 277 257 238 241
143 157 166 163 159 161 147 138 130 117 112 105 103 87 75 81 79 78 87 89 90 93 91 83 78 105 117 69 48 57 332 313 345 309 254 259 253 252 267 282 273 253 242
116 141 139 142 144 146 143 149 150 146 135 121 109 99 84 74 76 77 79 80 80 78 73 66 59 58 82 88 70 56 60 60 352 328 311 287 267 251 248 263 277 293 284
58 86 91 102 107 112 118 131 132 125 115 109 106 101 90 81 80 84 84 84 82 80 79 72 65 57 55 60 60 55 39 31 228 255 293 312 303 272 255 247 251 265 274
55 64 72 80 80 87 92 101 108 113 112 114 111 106 97 90 83 81 82 81 82 82 78 74 69 66 63 63 54 43 24 351 323 295 292 303 304 309 310 297 269 253 250